(295251) = 2008 GQ40

Discovered at Kitt Peak on 2008-04-04 by Spacewatch.

Orbit

Orbit type: Main Belt

Note: WebGL enabled browser required.

epoch2023-09-13.0
epoch JD2460200.5
perihelion date2019-05-17.31658
perihelion JD2458620.81658
argument of perihelion (°)211.57598
ascending node (°)158.73966
inclination (°)6.61959
eccentricity0.0602286
perihelion distance (AU)2.5789358
Tisserand w.r.t. Jupiter3.3
ΔV w.r.t. Earth (km/sec)10.2
semimajor axis (AU)2.7442162
mean anomaly (°)342.48884
mean daily motion (°/day)0.21680850
aphelion distance (AU)2.909
period (years)4.55
P-vector [x]0.98257040
P-vector [y]0.18532017
P-vector [z]0.01455489
Q-vector [x]-0.18113024
Q-vector [y]0.93686137
Q-vector [z]0.29913644
absolute magnitude17.06
phase slope0.15
uncertainty0
referenceMPO 779119
observations used205
oppositions15
arc length (days)9881
first opposition used1996
last opposition used2023
residual rms (arc-secs)0.84
perturbers coarse indicatorM-v
perturbers precise indicator003Ek
first observation date used1996-10-15.0
last observation date used2023-11-04.0
computer nameMPCLINUX
JD of orbit computation2456966.751409
perihelion JD uncertainty (days)1.7358E-04
argument of perihelion uncertainty (°)5.6500E-05
ascending node uncertainty (°)4.2460E-05
inclination uncertainty (°)5.1386E-06
eccentricity uncertainty 5.3410E-08
perihelion distance uncertainty (AU)1.5166E-07
Minimum Orbit Intersection Distances (in AU)
for orbit epoch: 2460200.5, reference: E2023-V42
Mercury2.21399
Venus1.853
Earth1.57901
Mars1.15884
Jupiter2.37626
Saturn6.33111
Uranus15.5506
Neptune27.2534

Observations

207 total observations over interval: 1996 10 15.29298 – 2023 11 04.298999
These data are available for download (format description).

Date (UT) J2000 RA J2000 Dec Magn Location Ref
1996 10 15.29298 01 45 47.34 +02 45 17.8 20.8 V 691 – Steward Observatory, Kitt Peak-Spacewatch MPS 252822
1996 10 15.30438 01 45 46.80 +02 45 13.4   691 – Steward Observatory, Kitt Peak-Spacewatch MPS 252822
2005 09 25.24534 01 07 32.55 +01 03 40.7 20.6 V 691 – Steward Observatory, Kitt Peak-Spacewatch MPS 252822
2005 09 25.26303 01 07 31.78 +01 03 32.8 20.6 V 691 – Steward Observatory, Kitt Peak-Spacewatch MPS 252822
2005 09 25.28065 01 07 31.00 +01 03 24.9 20.9 V 691 – Steward Observatory, Kitt Peak-Spacewatch MPS 252822
2007 01 28.23873 08 08 58.84 +14 06 45.5 20.7 V G96 – Mt. Lemmon Survey MPS 252822
2007 01 28.24703 08 08 58.38 +14 06 48.0 21.2 V G96 – Mt. Lemmon Survey MPS 252822
2007 01 28.25527 08 08 57.91 +14 06 50.6 20.5 V G96 – Mt. Lemmon Survey MPS 252822
2007 01 28.26352 08 08 57.48 +14 06 52.5 20.4 V G96 – Mt. Lemmon Survey MPS 252822
2007 02 09.27893 07 59 04.02 +15 06 44.1 21.3 V G96 – Mt. Lemmon Survey MPS 252822
2007 02 09.28441 07 59 03.73 +15 06 45.9 21.8 V G96 – Mt. Lemmon Survey MPS 252822
2007 02 09.28984 07 59 03.51 +15 06 46.9 21.8 V G96 – Mt. Lemmon Survey MPS 252822
2007 02 09.29534 07 59 03.26 +15 06 48.8 21.3 V G96 – Mt. Lemmon Survey MPS 252822
2008 04 04.29541 14 19 59.15 -06 02 55.2 20.9 V 691 – Steward Observatory, Kitt Peak-Spacewatch MPS 246892
2008 04 04.31300 14 19 58.44 -06 02 49.0 21.4 V 691 – Steward Observatory, Kitt Peak-Spacewatch MPS 246892
2008 04 04.33060 14 19 57.72 -06 02 42.7 21.1 V 691 – Steward Observatory, Kitt Peak-Spacewatch MPS 246892
2008 04 08.26801 14 17 16.52 -05 38 51.3 21.2 V 691 – Steward Observatory, Kitt Peak-Spacewatch MPS 246892
2008 04 08.28563 14 17 15.71 -05 38 45.1 21.1 V 691 – Steward Observatory, Kitt Peak-Spacewatch MPS 246892
2008 04 08.30327 14 17 14.94 -05 38 38.0 20.5 V 691 – Steward Observatory, Kitt Peak-Spacewatch MPS 246892
2008 04 24.28069 14 04 52.39 -04 03 42.1 21.0 V G96 – Mt. Lemmon Survey MPS 252822
2008 04 24.28627 14 04 52.10 -04 03 40.4 20.8 V G96 – Mt. Lemmon Survey MPS 252822
2008 04 24.29184 14 04 51.81 -04 03 38.6 21.4 V G96 – Mt. Lemmon Survey MPS 252822
2008 04 24.29740 14 04 51.56 -04 03 36.9 21.9 V G96 – Mt. Lemmon Survey MPS 252822
2008 05 31.27031 13 42 13.96 -02 04 18.6 20.4 V G96 – Mt. Lemmon Survey MPS 252822
2008 05 31.27793 13 42 13.78 -02 04 18.1 20.8 V G96 – Mt. Lemmon Survey MPS 252822
2008 05 31.28559 13 42 13.64 -02 04 18.3 20.8 V G96 – Mt. Lemmon Survey MPS 252822
2008 05 31.29315 13 42 13.50 -02 04 17.9 21.6 V G96 – Mt. Lemmon Survey MPS 252822
2009 08 19.17323 20 31 02.79 -14 20 54.8 21.0 V 691 – Steward Observatory, Kitt Peak-Spacewatch MPS 291795
2009 08 19.18454 20 31 02.31 -14 20 58.4 21.0 V 691 – Steward Observatory, Kitt Peak-Spacewatch MPS 291795
2009 08 19.19609 20 31 01.82 -14 21 03.1 21.0 V 691 – Steward Observatory, Kitt Peak-Spacewatch MPS 291795
2010 11 11.532768 04 39 22.063 +11 48 42.22 21.05 r F51 – Pan-STARRS 1, Haleakala MPS 365743
2010 11 11.544092 04 39 21.563 +11 48 39.54 21.13 r F51 – Pan-STARRS 1, Haleakala MPS 365743
2010 12 15.23299 04 10 04.40 +10 36 51.9 19.9 V G96 – Mt. Lemmon Survey MPS 359121
2010 12 15.23912 04 10 04.11 +10 36 51.5 20.3 V G96 – Mt. Lemmon Survey MPS 359121
2010 12 15.24543 04 10 03.79 +10 36 51.7 20.2 V G96 – Mt. Lemmon Survey MPS 359121
2010 12 15.25168 04 10 03.46 +10 36 50.8 20.6 V G96 – Mt. Lemmon Survey MPS 359121
2012 01 19.47800 11 23 06.86 +03 16 48.0 22.0 V G96 – Mt. Lemmon Survey MPS 408722
2012 01 19.48551 11 23 06.79 +03 16 48.3 22.4 V G96 – Mt. Lemmon Survey MPS 408722
2012 01 19.49304 11 23 06.79 +03 16 50.7 22.2 V G96 – Mt. Lemmon Survey MPS 408722
2012 01 19.50062 11 23 06.72 +03 16 50.9 21.7 V G96 – Mt. Lemmon Survey MPS 408722
2012 02 16.54218 11 11 42.785 +05 25 46.98 21.7 w F51 – Pan-STARRS 1, Haleakala MPS 414092
2012 02 16.55692 11 11 42.157 +05 25 52.93 21.7 w F51 – Pan-STARRS 1, Haleakala MPS 414092
2012 02 16.57162 11 11 41.543 +05 25 58.48 21.7 w F51 – Pan-STARRS 1, Haleakala MPS 414092
2012 02 23.36138 11 06 49.78 +06 11 45.4 21.2 V G96 – Mt. Lemmon Survey MPS 425937
2012 02 23.37121 11 06 49.32 +06 11 49.5 21.1 V G96 – Mt. Lemmon Survey MPS 425937
2012 02 23.38102 11 06 48.81 +06 11 53.7 21.4 V G96 – Mt. Lemmon Survey MPS 425937
2012 02 23.39076 11 06 48.38 +06 11 57.6 20.8 V G96 – Mt. Lemmon Survey MPS 425937
2012 03 21.23463 10 46 16.57 +09 15 49.6 21.1 V G96 – Mt. Lemmon Survey MPS 418365
2012 03 21.23984 10 46 16.35 +09 15 51.3 21.0 V G96 – Mt. Lemmon Survey MPS 418365
2012 03 21.24513 10 46 16.10 +09 15 53.1 21.7 V G96 – Mt. Lemmon Survey MPS 418365
2012 03 21.25035 10 46 15.88 +09 15 54.8 22.0 V G96 – Mt. Lemmon Survey MPS 418365
2013 06 05.34354 16 50 41.10 -12 05 42.2 20.5 V G96 – Mt. Lemmon Survey MPS 469810
2013 06 05.34932 16 50 40.77 -12 05 41.6 20.9 V G96 – Mt. Lemmon Survey MPS 469810
2013 06 05.35516 16 50 40.45 -12 05 41.6 20.8 V G96 – Mt. Lemmon Survey MPS 469810
2013 06 05.36100 16 50 40.16 -12 05 40.4 20.3 V G96 – Mt. Lemmon Survey MPS 469810
2013 06 05.36685 16 50 39.87 -12 05 40.7 20.6 V G96 – Mt. Lemmon Survey MPS 469810
2013 06 07.41279 16 48 51.736 -12 03 03.98 20.8 w F51 – Pan-STARRS 1, Haleakala MPS 469810
2013 06 07.42671 16 48 50.976 -12 03 03.02 20.8 w F51 – Pan-STARRS 1, Haleakala MPS 469810
2013 06 07.44328 16 48 50.069 -12 03 01.74 20.8 w F51 – Pan-STARRS 1, Haleakala MPS 469810
2013 07 01.32089 16 30 31.448 -12 02 10.95 21.2 w F51 – Pan-STARRS 1, Haleakala MPS 471750
2013 07 01.33425 16 30 30.987 -12 02 11.88 21.2 w F51 – Pan-STARRS 1, Haleakala MPS 471750
2013 07 01.34760 16 30 30.485 -12 02 12.92 21.2 w F51 – Pan-STARRS 1, Haleakala MPS 471750
2013 07 01.36093 16 30 29.989 -12 02 13.79 21.2 w F51 – Pan-STARRS 1, Haleakala MPS 471750
2014 07 30.57061 00 35 00.762 +02 07 43.06 21.4 w F51 – Pan-STARRS 1, Haleakala MPS 525256
2014 07 30.58304 00 35 00.975 +02 07 42.48 21.6 w F51 – Pan-STARRS 1, Haleakala MPS 525256
2014 07 30.59553 00 35 01.192 +02 07 41.31 21.7 w F51 – Pan-STARRS 1, Haleakala MPS 525256
2014 09 01.32193 00 32 28.89 +00 03 02.1 20.9 V 691 – Steward Observatory, Kitt Peak-Spacewatch MPS 531248
2014 09 01.34223 00 32 28.33 +00 02 54.3 20.8 V 691 – Steward Observatory, Kitt Peak-Spacewatch MPS 531248
2014 09 01.36252 00 32 27.73 +00 02 46.4 21.0 V 691 – Steward Observatory, Kitt Peak-Spacewatch MPS 531248
2014 10 01.38137 00 12 21.49 -03 39 55.1 20.3 V G96 – Mt. Lemmon Survey MPS 538609
2014 10 01.38594 00 12 21.29 -03 39 57.4 20.2 V G96 – Mt. Lemmon Survey MPS 538609
2014 10 01.39051 00 12 21.04 -03 39 58.9 20.0 V G96 – Mt. Lemmon Survey MPS 538609
2014 10 01.39508 00 12 20.84 -03 40 01.1 20.2 V G96 – Mt. Lemmon Survey MPS 538609
2014 10 24.21016 23 58 10.23 -05 50 00.1 20.9 V G96 – Mt. Lemmon Survey MPS 542010
2014 10 24.21680 23 58 10.03 -05 50 01.8 20.6 V G96 – Mt. Lemmon Survey MPS 542010
2014 10 24.22353 23 58 09.83 -05 50 02.9 20.4 V G96 – Mt. Lemmon Survey MPS 542010
2014 10 24.23017 23 58 09.68 -05 50 04.9 21.0 V G96 – Mt. Lemmon Survey MPS 542010
2017 03 22.41421 13 49 55.632 -04 37 17.71 21.5 w F51 – Pan-STARRS 1, Haleakala MPS 781372
2017 03 22.42647 13 49 55.192 -04 37 13.28 21.4 w F51 – Pan-STARRS 1, Haleakala MPS 781372
2017 03 22.43875 13 49 54.755 -04 37 08.83 21.5 w F51 – Pan-STARRS 1, Haleakala MPS 781372
2017 03 22.45103 13 49 54.311 -04 37 04.40 21.4 w F51 – Pan-STARRS 1, Haleakala MPS 781372
2017 04 06.24349 13 39 54.42 -03 02 04.7 21.1 V G96 – Mt. Lemmon Survey MPS 789423
2017 04 06.25769 13 39 53.71 -03 01 58.5 21.4 V G96 – Mt. Lemmon Survey MPS 789423
2017 04 06.27209 13 39 53.06 -03 01 52.8 21.9 V G96 – Mt. Lemmon Survey MPS 789423
2017 04 06.28631 13 39 52.41 -03 01 48.3 21.9 V G96 – Mt. Lemmon Survey MPS 789423
2017 04 17.25677 13 31 17.61 -01 52 13.2 21.2 V G96 – Mt. Lemmon Survey MPS 792598
2017 04 17.27154 13 31 16.91 -01 52 09.0 20.9 V G96 – Mt. Lemmon Survey MPS 792598
2017 04 17.28622 13 31 16.18 -01 52 04.1 21.3 V G96 – Mt. Lemmon Survey MPS 792598
2017 04 17.30062 13 31 15.47 -01 51 58.7 21.1 V G96 – Mt. Lemmon Survey MPS 792598
2017 04 26.36788 13 24 18.443 -01 01 20.69 21.1 w F51 – Pan-STARRS 1, Haleakala MPS 794462
2017 04 26.37855 13 24 17.957 -01 01 17.26 21.2 w F51 – Pan-STARRS 1, Haleakala MPS 794462
